Location: La Cassière
(45.6910°N, 2.9963°E)
Time: 15:42:50
(UTC+00:00)

Daily predictions for brighter satellites

Satellite Brightness Start Highest point End
(mag) Time Altitude Azimuth Time Altitude Azimuth Time Altitude Azimuth
Cosmos 2082 4.2 19:53:33 10° NNW 19:59:02 49° ENE 20:04:28 10° SE
Meteor 1-11 Rocket 3.9 19:54:30 10° N 20:00:30 71° ENE 20:06:24 10° SSE
Cosmos 2263 Rocket 3.4 19:57:07 10° N 20:01:57 29° NE 20:06:45 10° ESE
Cosmos 1470 Rocket 3.6 19:58:29 10° N 20:02:48 65° E 20:07:05 10° SSE
Cosmos 1656 4.5 19:57:37 10° SW 20:03:05 57° WNW 20:08:31 10° NNE
Cosmos 1743 3.1 20:02:20 10° N 20:06:01 46° ENE 20:09:39 10° SSE
Ariane Rocket 3.3 20:01:07 10° SSE 20:06:03 55° ENE 20:11:01 10° N
BREEZE-M DEB (TANK) 2.8 20:07:26 10° W 20:10:37 51° NNW 20:12:44 10° ENE
SPOT 5 4.3 20:07:03 10° ESE 20:11:20 26° ENE 20:15:31 10° N
IRAS Rocket 4.4 20:06:58 10° NNE 20:12:33 59° ESE 20:18:06 10° S
Terra 3.6 20:10:00 10° ESE 20:13:05 18° ENE 20:16:12 10° NNE
Resurs 01 Rocket 1.6 20:10:21 10° SSE 20:14:45 82° ENE 20:19:10 10° NNW
Aureole 1 Rocket 2.1 20:13:00 10° SSW 20:16:12 66° ESE 20:19:09 10° NNE
Cosmos 1515 Rocket 3.5 20:12:43 10° S 20:17:03 68° E 20:21:26 10° NNE
Cosmos 2227 Rocket 2.7 20:14:40 10° NNW 20:20:15 58° WSW 20:25:46 10° S
Landsat 7 4.4 20:15:36 10° S 20:20:15 59° W 20:24:56 10° NNW
Cosmos 921 Rocket 3.4 20:17:06 10° N 20:21:33 53° ENE 20:25:38 12° SE
PSLV R/B 4.1 20:18:55 10° N 20:22:58 78° WNW 20:26:59 10° SSW
Cosmos 1980 Rocket 2.2 20:23:25 10° S 20:28:55 59° ESE 20:34:29 10° NNE
CARTOSAT-1 3.8 20:26:14 11° SSE 20:30:13 55° ENE 20:34:27 10° N
Cosmos 1869 Rocket 4.3 20:26:52 10° N 20:31:06 38° ENE 20:34:33 14° SE
Cosmos 2228 Rocket 4.0 20:29:01 11° SSE 20:32:48 33° E 20:36:53 10° NNE
Cosmos 1464 Rocket 4.0 20:27:35 10° S 20:33:48 82° E 20:39:58 10° N
Cosmos 1378 4.5 20:34:31 15° SE 20:36:25 22° E 20:39:18 10° NE
ARGOS Delta rocket 4.3 20:31:18 10° N 20:36:49 82° WNW 20:42:13 10° SSW
Cosmos 2344 3.5 20:29:29 10° SSW 20:37:01 74° SE 20:44:36 10° NE
Cosmos 2322 Rocket 3.9 20:36:17 12° ESE 20:38:00 13° E 20:40:36 10° ENE
ISS -2.9 20:35:07 10° NW 20:38:22 47° NNE 20:41:27 11° E
Cosmos 2369 3.7 20:32:57 10° SSW 20:38:35 81° ESE 20:44:16 10° NNE
Cosmos 1354 Rocket 4.0 20:34:17 10° S 20:39:28 63° ESE 20:44:43 10° NNE
Spot 2 Rocket 4.0 20:35:42 14° SE 20:39:46 44° ENE 20:44:33 10° N
SPOT 3 Rocket 3.6 20:36:10 12° SSE 20:40:54 71° ENE 20:46:03 10° N
Cosmos 773 Rocket 4.2 20:36:01 10° NNW 20:41:12 61° ENE 20:45:19 16° SE
Cosmos 1536 3.4 20:37:40 10° NNW 20:41:37 56° W 20:45:33 10° S
ATLAS 2AS CENTAUR R/B 3.0 20:34:05 10° SSW 20:41:41 57° ESE 20:49:05 10° NE
Okean 1 3.4 20:40:11 10° S 20:44:02 57° E 20:48:00 10° NNE
Meteor 1-19 Rocket 4.2 20:40:47 10° S 20:46:07 60° E 20:51:26 10° NNE
H-2A R/B 3.7 20:42:46 10° N 20:46:30 35° WNW 20:50:14 10° SW
NOSS 3-4 (A) 4.3 20:40:58 10° WSW 20:46:34 53° NW 20:52:41 10° NNE
NOSS 3-4 (C) 4.2 20:41:00 10° WSW 20:46:38 54° NW 20:52:45 10° NNE
Cosmos 1092 Rocket 4.4 20:41:27 10° N 20:47:25 48° ENE 20:52:05 16° SE
RESURS DK-1 2.6 20:43:50 10° S 20:47:47 48° ESE 20:51:46 10° NE
Cosmos 1697 Rocket 3.6 20:42:19 10° SW 20:47:51 54° WNW 20:53:25 10° NNE
USA 245 4.5 20:42:54 12° SSE 20:48:20 80° ENE 20:54:46 10° N
Nadezhda 4 Rocket 4.0 20:42:04 10° N 20:48:20 83° E 20:54:08 12° S
SL-4 R/B 3.2 20:45:10 10° WNW 20:49:19 35° SW 20:52:09 16° SSE
Meteor 2-14 Rocket 4.4 20:45:11 10° N 20:51:17 75° E 20:56:34 14° SSE
ATLAS CENTAUR R/B 4.2 20:53:35 10° N 20:56:16 14° NNE 20:58:55 10° ENE
ARIANE 5 R/B 3.7 20:53:39 17° ESE 20:56:22 32° ENE 21:00:22 10° N
Cosmos 2297 Rocket 4.3 20:52:33 10° NW 20:56:34 20° W 21:00:33 10° SW
MetOp-B 4.4 20:52:35 11° S 20:57:46 68° WSW 21:03:08 10° NNW
Cosmos 44 Rocket 3.7 20:53:39 10° NNW 20:58:15 50° NE 21:01:28 18° ESE
Cosmos 1184 Rocket 4.3 21:00:42 10° SW 21:03:27 32° WNW 21:06:15 10° N
Cosmos 158 Rocket 4.2 21:00:58 10° NNW 21:06:03 59° ENE 21:09:24 22° SE
ATLAS 3B R/B 3.4 21:00:06 10° NNW 21:07:15 52° NE 21:13:24 15° ESE
Meteor 2-9 Rocket 4.3 21:01:49 10° NNW 21:07:37 84° W 21:12:06 17° S
NOSS 2-1 (E) 3.8 21:08:10 26° ESE 21:08:10 26° ESE 21:10:46 10° ENE
Cosmos 1975 3.1 21:07:31 10° N 21:11:32 55° ENE 21:13:33 27° SE
Timation 2 Rocket 4.4 21:05:20 10° NNW 21:11:51 64° WSW 21:17:06 17° S
USA 81 4.5 21:09:01 21° SSE 21:12:11 46° E 21:17:13 10° NNE
Cosmos 2026 Rocket 4.1 21:06:37 10° N 21:12:46 64° E 21:17:00 21° SSE
Cosmos 389 Rocket 4.4 21:09:52 10° NW 21:12:48 25° W 21:15:43 10° SSW
ERS-1 Rocket 2.9 21:12:32 22° SSE 21:15:52 79° ENE 21:20:56 10° NNW
SL-16 R/B 2.7 21:13:28 20° SSE 21:16:47 39° ESE 21:22:00 10° NE
CZ-4B R/B 4.2 21:14:57 10° NNW 21:17:04 17° WNW 21:19:09 10° WSW
Meteor 1-4 Rocket 4.3 21:16:11 10° NNE 21:18:43 19° ENE 21:19:36 17° E
Cosmos 1538 Rocket 4.3 21:16:14 10° NNW 21:21:25 57° ENE 21:24:18 25° SE
Helios 1A Rocket 3.2 21:19:01 21° S 21:21:31 62° WSW 21:25:30 10° NNW
GENESIS II 4.3 21:20:46 21° S 21:23:02 51° ESE 21:26:51 10° NE
CZ-2C R/B 3.7 21:19:36 10° NNE 21:24:24 75° ESE 21:27:47 19° S
Cosmos 1733 Rocket 3.5 21:21:30 10° N 21:25:50 49° ENE 21:27:44 29° SE
Meteor 2-8 Rocket 4.4 21:25:01 20° S 21:29:17 66° E 21:35:18 10° NNE
OE (NEXTSAT) 4.1 21:26:47 10° W 21:30:06 88° N 21:32:08 22° E
SJ 16-02 2.2 21:27:22 10° SW 21:31:36 49° WNW 21:35:52 10° N
Meteor 1-18 Rocket 4.2 21:26:49 13° SSW 21:31:56 85° W 21:37:35 10° N
SAR-Lupe-4 4.2 21:29:33 10° NNE 21:32:55 36° E 21:33:21 35° ESE
Cosmos 1627 Rocket 4.5 21:27:39 10° N 21:33:54 88° W 21:38:05 23° S
Iridium 45 4.5 21:33:06 40° SSE 21:34:09 66° E 21:37:38 10° N
Cosmos 2278 4.0 21:31:42 10° SW 21:37:20 68° WNW 21:43:01 10° NNE
Cosmos 2292 Rocket 3.0 21:34:30 10° NNW 21:37:26 55° W 21:38:15 38° SSW
Cosmos 1862 Rocket 3.8 21:37:31 33° SSE 21:39:12 54° E 21:43:35 10° NNE
Cosmos 2360 Rocket 3.1 21:40:42 26° SE 21:41:57 29° ESE 21:46:43 10° NE
BREEZE M DEB (TANK) 4.2 21:37:58 10° WNW 21:42:35 65° SSW 21:55:47 17° SE
Cosmos 1726 4.1 21:42:05 10° NNE 21:44:32 17° ENE 21:45:09 16° E
Meteor 2-15 4.4 21:41:00 22° S 21:45:01 80° E 21:51:07 10° N
Cosmos 2263 Rocket 2.7 21:40:45 10° NW 21:46:09 50° WSW 21:49:11 25° S
NOSS 2-1 (C) 2.7 21:46:44 28° SW 21:48:20 88° WNW 21:51:33 10° NE
SPOT 5 3.8 21:45:43 20° SSW 21:49:08 48° W 21:54:06 10° NNW
Terra 2.1 21:47:56 28° S 21:50:21 64° WSW 21:55:06 10° NNW
Cosmos 1441 Rocket 3.3 21:51:04 48° SE 21:51:38 54° E 21:55:16 10° NNE
Resurs 01 Rocket 4.4 21:50:56 10° W 21:51:49 11° W 21:52:42 10° WNW
Cosmos 1346 Rocket 2.9 21:50:23 30° SSW 21:52:16 73° W 21:56:18 10° N
SAR-Lupe-1 3.9 21:50:24 10° NNE 21:54:00 78° ESE 21:54:47 52° S
Cosmos 2279 Rocket 3.9 21:53:29 27° S 21:57:03 77° E 22:03:17 10° N
NOSS 2-1 (D) 3.0 21:56:58 23° SW 21:58:48 67° NW 22:02:01 10° NE
Cosmos 990 Rocket 4.1 21:57:54 35° SSE 21:59:53 57° ESE 22:05:01 10° NNE
Cosmos 1680 Rocket 4.2 21:56:06 10° N 22:01:10 43° ENE 22:03:26 28° ESE
USA 215 3.7 21:55:28 10° ENE 22:01:29 38° SE 22:03:42 30° SSE
Iridium 2 3.5 21:59:57 10° N 22:03:43 83° E 22:04:23 58° SSE
Cosmos 1066 Rocket 4.2 22:05:06 34° S 22:07:40 70° E 22:13:19 10° NNE
Cosmos 1818 4.3 22:03:57 10° NNW 22:09:12 45° NE 22:12:08 24° ESE
Iridium 4 Rocket 3.9 22:08:08 10° N 22:12:32 42° E 22:13:44 36° ESE
Cosmos 1898 Rocket 3.8 22:11:50 40° SSE 22:13:14 50° ESE 22:18:23 10° NNE
Cosmos 1980 Rocket 4.3 22:08:38 10° WSW 22:13:20 26° NW 22:18:04 10° N
SL-24 R/B - RUBIN 2 4.3 22:10:19 10° NW 22:14:30 42° WSW 22:15:32 36° SSW
ISS -2.5 22:12:00 10° WNW 22:14:21 30° WSW 22:14:21 30° WSW
Okean 1-7 3.3 22:17:25 46° ESE 22:18:02 50° E 22:22:16 10° NNE
Iridium 51 3.9 22:21:01 67° E 22:21:01 67° E 22:24:31 10° N
Cosmos 2322 Rocket 2.1 22:18:02 27° SSW 22:21:11 89° ESE 22:26:50 10° NNE
Cosmos 2180 Rocket 4.4 22:21:19 32° S 22:24:21 87° W 22:30:32 10° N
Okean 3 3.9 22:25:02 44° ESE 22:25:19 44° E 22:29:22 10° NNE
Cosmos 1844 Rocket 2.7 22:20:19 10° NNW 22:25:55 76° ENE 22:27:57 41° SE
Cosmos 2333 Rocket 2.8 22:25:18 35° SE 22:26:07 36° ESE 22:31:16 10° NE
Cosmos 1805 3.3 22:24:05 10° NNW 22:27:58 69° W 22:28:28 60° SW
BREEZE-M DEB (TANK) 2.6 22:29:21 10° WNW 22:31:53 51° SSW 22:31:53 51° SSW
H-2A R/B 4.3 22:28:43 10° NNE 22:32:20 34° E 22:32:20 34° E
ARIANE 5 R/B 4.1 22:31:11 22° SW 22:32:48 28° W 22:36:42 10° NW
ATLAS 2AS CENTAUR R/B 4.0 22:25:33 10° WSW 22:32:56 45° NW 22:40:05 10° NNE
Meteor 1-23 Rocket 4.4 22:34:01 42° SSE 22:35:49 60° E 22:41:34 10° NNE
ATLAS CENTAUR R/B 2.3 22:31:25 10° NNW 22:36:12 52° NE 22:37:49 35° ESE
USA 267 4.0 22:30:57 10° E 22:37:13 51° NNE 22:43:30 10° NW
Cosmos 1733 3.8 22:37:25 10° NNW 22:41:03 45° W 22:41:23 44° WSW
Cosmos 1766 3.1 22:39:12 10° N 22:43:09 89° W 22:43:23 79° S
Cosmos 2219 Rocket 2.7 22:44:47 38° ESE 22:45:27 39° ESE 22:50:37 10° NE
Cosmos 1703 Rocket 3.5 22:48:16 60° SSW 22:49:03 82° W 22:53:29 10° N
Cosmos 1844 3.7 22:43:49 10° NNW 22:49:40 86° WSW 22:51:27 47° SSE
Cosmos 372 Rocket 4.1 22:51:17 51° SE 22:52:03 56° ESE 22:57:06 10° NNE
Meteor 1-4 Rocket 4.0 22:50:34 10° NW 22:53:33 27° W 22:53:34 27° W
ATLAS 3B R/B 3.4 22:51:01 10° NW 22:57:58 45° WSW 23:00:39 33° SSW
Cosmos 1707 3.7 23:00:36 36° ENE 23:00:36 36° ENE 23:03:51 10° NNE
SL-16 R/B 3.5 22:55:41 10° WSW 23:00:54 37° NW 23:06:09 10° NNE
Cosmos 1655 Rocket 4.1 22:55:45 10° NNW 23:01:55 65° W 23:04:10 40° SSW
Cosmos 1782 Rocket 3.4 23:00:02 10° N 23:04:25 80° W 23:04:50 71° SSW
ERS-2 2.6 23:03:51 10° NNE 23:06:52 50° ENE 23:06:52 50° ENE
CZ-4C R/B 3.3 23:01:13 10° NW 23:08:18 63° NE 23:14:17 20° ESE
NOSS 3-1 (C) 4.1 23:01:36 10° NW 23:09:04 82° NE 23:14:03 29° SE
Gblst 52 Del rocket 4.4 23:07:33 10° WSW 23:14:02 77° NNW 23:19:48 10° ENE
Cosmos 2237 Rocket 3.9 23:14:56 18° ESE 23:15:26 18° E 23:19:11 10° ENE
COSMOS 2428 2.9 23:17:54 47° SE 23:18:47 51° ESE 23:24:17 10° NE
Cosmos 1470 2.7 23:15:19 10° N 23:19:01 81° NNW 23:19:01 81° NNW
Cosmos 1726 3.3 23:16:18 10° NNW 23:19:26 34° W 23:19:26 34° W
Cosmos 1300 Rocket 3.4 23:16:11 10° N 23:20:34 81° E 23:20:51 75° SE
Cosmos 2242 Rocket 4.2 23:21:24 42° WSW 23:22:20 50° WNW 23:26:46 10° N
ALOS 2 2.5 23:22:00 71° SSW 23:22:20 76° WSW 23:26:45 10° NNW
Cosmos 2151 Rocket 4.4 23:19:11 10° N 23:23:21 40° ENE 23:23:57 37° E
Cosmos 1937 Rocket 3.9 23:22:46 35° SW 23:24:43 57° WNW 23:29:57 10° NNE
Cosmos 2360 Rocket 3.0 23:22:25 23° WSW 23:25:41 47° WNW 23:31:10 10° NNE
Cosmos 1242 Rocket 3.2 23:22:56 10° N 23:26:07 48° NE 23:26:07 48° NE
Okean 2 Rocket 3.5 23:23:03 10° N 23:27:29 51° ENE 23:28:05 47° ESE
Cosmos 405 Rocket 4.3 23:28:20 24° ENE 23:28:20 24° ENE 23:30:59 10° NE
In-Cosmos 22 4.2 23:29:31 52° SSE 23:30:44 68° E 23:36:11 10° NNE
Cosmos 2333 4.3 23:29:02 39° SW 23:31:08 69° WNW 23:36:46 10° NNE
Cosmos 1437 Rocket 4.3 23:30:07 10° NNE 23:33:13 24° ENE 23:33:33 24° E
Cosmos 1867 3.5 23:33:44 57° SSE 23:34:36 66° ESE 23:40:03 10° NE
Cosmos 1908 4.0 23:31:15 10° N 23:34:48 41° ENE 23:34:48 41° ENE
Meteor 1-21 4.2 23:34:35 52° S 23:36:05 80° E 23:41:56 10° NNE
Cosmos 1626 2.9 23:37:36 43° ENE 23:37:36 43° ENE 23:40:37 10° NNE
Cosmos 1842 4.3 23:38:57 35° W 23:39:12 36° WNW 23:42:48 10° N
Cosmos 1953 3.6 23:40:43 10° N 23:44:18 30° ENE 23:44:46 30° E
USA 215 3.4 23:38:15 10° NE 23:44:48 74° NNW 23:51:00 12° WSW
Cosmos 2278 Rocket 2.9 23:40:32 10° NNW 23:46:03 49° ENE 23:48:51 27° ESE
Cosmos 1674 2.8 23:50:45 71° NNE 23:50:45 71° NNE 23:54:09 10° N
Cosmos 1818 4.4 23:47:47 10° NW 23:52:39 33° WSW 23:52:45 33° WSW
Sich 1 Rocket 3.5 23:49:24 10° NNW 23:53:47 68° W 23:54:00 66° WSW
ADEOS Rocket 2.9 23:52:27 50° SSW 23:53:50 66° WSW 23:59:49 10° NNW
